| time (UTC) | temp F | wind direction | speed MPH | gust MPH | rain 1hr in | rain 24hr in | rain mn in | humidity % | barometer mb |
| 20260502220016 | 48 | 186 | 6.0 | 15.0 | 0.00 | 0.00 | 0.00 | 58 | 1015.9 |
| 20260502215034 | 48 | 171 | 5.0 | 13.0 | 0.00 | 0.00 | 0.00 | 59 | 1016.0 |
| 20260502214029 | 48 | 171 | 5.0 | 16.0 | 0.00 | 0.00 | 0.00 | 61 | 1016.0 |
| 20260502213025 | 47 | 162 | 6.0 | 14.0 | 0.00 | 0.00 | 0.00 | 62 | 1016.1 |
| 20260502212022 | 47 | 166 | 5.0 | 11.0 | 0.00 | 0.00 | 0.00 | 63 | 1016.2 |
| 20260502211020 | 47 | 163 | 6.0 | 15.0 | 0.00 | 0.00 | 0.00 | 61 | 1016.3 |
| 20260502210017 | 47 | 177 | 5.0 | 14.0 | 0.00 | 0.00 | 0.00 | 62 | 1016.3 |
| 20260502205052 | 48 | 154 | 5.0 | 13.0 | 0.00 | 0.00 | 0.00 | 62 | 1016.4 |
| 20260502204030 | 48 | 152 | 5.0 | 16.0 | 0.00 | 0.00 | 0.00 | 61 | 1016.7 |
| 20260502202022 | 48 | 154 | 5.0 | 15.0 | 0.00 | 0.00 | 0.00 | 59 | 1016.9 |
| 20260502201019 | 49 | 150 | 5.0 | 11.0 | 0.00 | 0.00 | 0.00 | 59 | 1017.0 |
| 20260502200016 | 48 | 160 | 5.0 | 11.0 | 0.00 | 0.00 | 0.00 | 61 | 1017.3 |
| 20260502195033 | 47 | 136 | 5.0 | 10.0 | 0.00 | 0.00 | 0.00 | 62 | 1017.4 |
| 20260502194029 | 49 | 146 | 5.0 | 13.0 | 0.00 | 0.00 | 0.00 | 60 | 1017.3 |
| 20260502193025 | 49 | 150 | 5.0 | 10.0 | 0.00 | 0.00 | 0.00 | 61 | 1017.6 |
| 20260502192043 | 48 | 144 | 5.0 | 11.0 | 0.00 | 0.00 | 0.00 | 61 | 1017.6 |
| 20260502191019 | 48 | 141 | 5.0 | 11.0 | 0.00 | 0.00 | 0.00 | 61 | 1017.7 |
| 20260502190017 | 48 | 150 | 5.0 | 9.0 | 0.00 | 0.00 | 0.00 | 61 | 1017.8 |
| 20260502185053 | 48 | 142 | 5.0 | 11.0 | 0.00 | 0.00 | 0.00 | 61 | 1017.9 |
| 20260502184029 | 49 | 145 | 5.0 | 13.0 | 0.00 | 0.00 | 0.00 | 60 | 1018.0 |
| 20260502183026 | 50 | 138 | 5.0 | 11.0 | 0.00 | 0.00 | 0.00 | 60 | 1018.1 |
| 20260502181812 | 50 | 136 | 7.0 | 10.0 | 0.00 | 0.00 | 0.00 | 61 | 1018.0 |
| 20260502181022 | 49 | 141 | 4.0 | 10.0 | 0.00 | 0.00 | 0.00 | 61 | 1018.0 |
| 20260502164031 | 52 | 102 | 3.0 | 9.0 | 0.00 | 0.00 | 0.00 | 51 | 1018.6 |
| 20260502163028 | 53 | 121 | 3.0 | 8.0 | 0.00 | 0.00 | 0.00 | 48 | 1018.7 |
| 20260502162024 | 55 | 86 | 2.0 | 10.0 | 0.00 | 0.00 | 0.00 | 41 | 1018.8 |
| 20260502161021 | 54 | 93 | 2.0 | 7.0 | 0.00 | 0.00 | 0.00 | 42 | 1018.8 |
| 20260502152024 | 53 | 333 | 4.0 | 10.0 | 0.00 | 0.00 | 0.00 | 37 | 1019.0 |
| 20260502151041 | 54 | 347 | 2.0 | 10.0 | 0.00 | 0.00 | 0.00 | 39 | 1019.1 |
| 20260502123027 | 42 | 272 | 3.0 | 9.0 | 0.00 | 0.02 | 0.00 | 64 | 1019.5 |
| 20260502122024 | 41 | 278 | 2.0 | 6.0 | 0.00 | 0.02 | 0.00 | 67 | 1019.5 |
| 20260502121100 | 38 | 287 | 2.0 | 6.0 | 0.00 | 0.02 | 0.00 | 73 | 1019.4 |
| 20260502115136 | 35 | 291 | 1.0 | 3.0 | 0.00 | 0.02 | 0.00 | 78 | 1019.4 |
| 20260502114030 | 34 | 290 | 1.0 | 6.0 | 0.00 | 0.02 | 0.00 | 79 | 1019.3 |
| 20260502113026 | 33 | 286 | 2.0 | 3.0 | 0.00 | 0.02 | 0.00 | 81 | 1019.3 |
| 20260502112022 | 32 | 283 | 1.0 | 3.0 | 0.00 | 0.02 | 0.00 | 83 | 1019.1 |
| 20260502111019 | 32 | 283 | 1.0 | 3.0 | 0.00 | 0.02 | 0.00 | 83 | 1019.1 |
| 20260502110054 | 32 | 283 | 1.0 | 3.0 | 0.00 | 0.02 | 0.00 | 83 | 1019.1 |
| 20260502105031 | 32 | 285 | 1.0 | 3.0 | 0.00 | 0.02 | 0.00 | 83 | 1019.1 |
| 20260502104027 | 32 | 282 | 1.0 | 4.0 | 0.00 | 0.02 | 0.00 | 83 | 1019.1 |
| 20260502103044 | 32 | 280 | 1.0 | 3.0 | 0.00 | 0.02 | 0.00 | 83 | 1019.0 |
| 20260502102020 | 32 | 281 | 1.0 | 4.0 | 0.00 | 0.02 | 0.00 | 84 | 1019.0 |
| 20260502101016 | 32 | 276 | 2.0 | 4.0 | 0.00 | 0.02 | 0.00 | 84 | 1019.0 |
| 20260502091017 | 32 | 276 | 2.0 | 4.0 | 0.00 | 0.02 | 0.00 | 88 | 1019.0 |
| 20260502071035 | 34 | 277 | 1.0 | 3.0 | 0.00 | 0.02 | 0.00 | 86 | 1019.0 |
| 20260502070033 | 34 | 273 | 2.0 | 3.0 | 0.00 | 0.02 | 0.00 | 85 | 1019.0 |
| 20260502065028 | 34 | 273 | 1.0 | 3.0 | 0.00 | 0.02 | 0.00 | 85 | 1019.2 |
| 20260502064025 | 33 | 273 | 1.0 | 2.0 | 0.00 | 0.02 | 0.00 | 85 | 1019.3 |
| 20260502063023 | 33 | 266 | 0.0 | 1.0 | 0.00 | 0.02 | 0.00 | 84 | 1019.3 |
| 20260502062018 | 33 | 266 | 0.0 | 2.0 | 0.00 | 0.02 | 0.00 | 84 | 1019.1 |
| 20260502061034 | 33 | 269 | 0.0 | 1.0 | 0.00 | 0.02 | 0.00 | 84 | 1019.2 |
| 20260502060031 | 33 | 0.0 | 0.0 | 0.00 | 0.02 | 0.00 | 83 | 1019.2 | |
| 20260502055028 | 33 | 0.0 | 0.0 | 0.00 | 0.02 | 0.00 | 83 | 1019.1 | |
| 20260502054024 | 34 | 268 | 0.0 | 1.0 | 0.00 | 0.02 | 0.00 | 83 | 1019.1 |
| 20260502053043 | 34 | 267 | 0.0 | 1.0 | 0.00 | 0.02 | 0.00 | 84 | 1019.2 |
| 20260502052018 | 34 | 263 | 0.0 | 1.0 | 0.00 | 0.02 | 0.00 | 83 | 1019.3 |
| 20260502051036 | 34 | 0.0 | 0.0 | 0.00 | 0.02 | 0.00 | 83 | 1019.3 | |
| 20260502050032 | 34 | 0.0 | 0.0 | 0.00 | 0.02 | 0.00 | 82 | 1019.3 | |
| 20260502045028 | 34 | 244 | 0.0 | 1.0 | 0.00 | 0.02 | 0.02 | 81 | 1019.4 |
| 20260502044025 | 34 | 0.0 | 0.0 | 0.00 | 0.02 | 0.02 | 79 | 1019.4 | |
| 20260502043023 | 34 | 0.0 | 0.0 | 0.00 | 0.02 | 0.02 | 77 | 1019.3 | |
| 20260502042018 | 35 | 0.0 | 0.0 | 0.00 | 0.02 | 0.02 | 77 | 1019.4 | |
| 20260502041035 | 35 | 239 | 0.0 | 1.0 | 0.00 | 0.02 | 0.02 | 76 | 1019.4 |
| 20260502040031 | 35 | 206 | 0.0 | 1.0 | 0.00 | 0.02 | 0.02 | 75 | 1019.4 |
| 20260502035028 | 36 | 0.0 | 0.0 | 0.00 | 0.02 | 0.02 | 73 | 1019.2 | |
| 20260502034045 | 36 | 200 | 0.0 | 1.0 | 0.00 | 0.02 | 0.02 | 73 | 1019.4 |
| 20260502033042 | 37 | 0.0 | 0.0 | 0.00 | 0.02 | 0.02 | 72 | 1019.4 | |
| 20260502032038 | 38 | 173 | 0.0 | 2.0 | 0.00 | 0.02 | 0.02 | 72 | 1019.3 |
| 20260502031036 | 38 | 172 | 1.0 | 2.0 | 0.00 | 0.02 | 0.02 | 73 | 1019.1 |
| 20260502030114 | 38 | 128 | 0.0 | 3.0 | 0.00 | 0.02 | 0.02 | 75 | 1019.4 |
| 20260502025028 | 38 | 140 | 1.0 | 2.0 | 0.00 | 0.02 | 0.02 | 74 | 1019.4 |
| 20260502024047 | 38 | 104 | 0.0 | 2.0 | 0.00 | 0.02 | 0.02 | 74 | 1019.4 |
| 20260502023102 | 38 | 110 | 1.0 | 4.0 | 0.00 | 0.02 | 0.02 | 77 | 1019.5 |
| 20260502022018 | 39 | 92 | 1.0 | 3.0 | 0.00 | 0.02 | 0.02 | 77 | 1019.6 |
| 20260502021035 | 39 | 46 | 1.0 | 3.0 | 0.00 | 0.02 | 0.02 | 77 | 1019.5 |
| 20260502020031 | 39 | 94 | 1.0 | 4.0 | 0.00 | 0.02 | 0.02 | 73 | 1019.3 |
| 20260502015028 | 40 | 0.0 | 0.0 | 0.00 | 0.02 | 0.02 | 69 | 1019.1 | |
| 20260502014024 | 40 | 215 | 0.0 | 1.0 | 0.00 | 0.02 | 0.02 | 69 | 1019.0 |
| 20260502013023 | 40 | 145 | 0.0 | 2.0 | 0.00 | 0.02 | 0.02 | 70 | 1019.0 |
| 20260502012018 | 40 | 163 | 0.0 | 2.0 | 0.00 | 0.02 | 0.02 | 69 | 1018.8 |
| 20260502011035 | 40 | 159 | 0.0 | 2.0 | 0.00 | 0.02 | 0.02 | 69 | 1018.9 |
| 20260502010112 | 40 | 143 | 0.0 | 1.0 | 0.00 | 0.02 | 0.02 | 68 | 1018.8 |
| 20260502005028 | 40 | 138 | 0.0 | 2.0 | 0.00 | 0.02 | 0.02 | 67 | 1018.7 |
| 20260502004105 | 41 | 194 | 0.0 | 2.0 | 0.00 | 0.02 | 0.02 | 65 | 1018.5 |
| 20260502003021 | 41 | 263 | 0.0 | 3.0 | 0.00 | 0.02 | 0.02 | 65 | 1018.5 |
| 20260502002038 | 41 | 265 | 1.0 | 3.0 | 0.00 | 0.02 | 0.02 | 65 | 1018.4 |
| 20260502001055 | 41 | 272 | 1.0 | 4.0 | 0.00 | 0.02 | 0.02 | 65 | 1018.4 |
| 20260502000032 | 41 | 244 | 1.0 | 2.0 | 0.00 | 0.02 | 0.02 | 66 | 1018.4 |
| 20260501235028 | 41 | 238 | 1.0 | 2.0 | 0.00 | 0.02 | 0.02 | 66 | 1018.4 |
| 20260501234025 | 41 | 197 | 1.0 | 3.0 | 0.00 | 0.02 | 0.02 | 66 | 1018.4 |
| 20260501233042 | 41 | 224 | 1.0 | 4.0 | 0.00 | 0.02 | 0.02 | 67 | 1018.4 |
| 20260501232018 | 41 | 183 | 1.0 | 6.0 | 0.00 | 0.02 | 0.02 | 68 | 1018.3 |
| 20260501231035 | 41 | 190 | 1.0 | 7.0 | 0.00 | 0.02 | 0.02 | 69 | 1018.4 |
| 20260501230031 | 41 | 161 | 1.0 | 3.0 | 0.00 | 0.02 | 0.02 | 70 | 1018.5 |
| 20260501225028 | 41 | 161 | 2.0 | 6.0 | 0.00 | 0.02 | 0.02 | 70 | 1018.5 |
| 20260501224025 | 41 | 153 | 2.0 | 6.0 | 0.00 | 0.02 | 0.02 | 69 | 1018.5 |
| 20260501223021 | 41 | 163 | 2.0 | 4.0 | 0.00 | 0.02 | 0.02 | 68 | 1018.4 |
| 20260501222018 | 41 | 142 | 2.0 | 6.0 | 0.00 | 0.02 | 0.02 | 67 | 1018.4 |
| 20260501221035 | 42 | 140 | 2.0 | 6.0 | 0.00 | 0.02 | 0.02 | 64 | 1018.3 |